sat.trackr.live / text

‹ back to catalog

STARLINK-35399

NORAD 66029 · 2025-232AA

PAYLOAD ACTIVE UNKNOWN

§ Identity

Operator
Country
US
Launch date
2025-10-16
Launch site
AFETR
Launch vehicle
Mass (kg)
RCS (m²)

Purposes: comms

External: N2YO · Heavens-Above · Gunter

§ Orbital elements

Epoch: 2026-05-25T04:24:10.460160Z

Period
94.10 min
Inclination
53.1570°
Eccentricity
0.0001165
Mean motion
15.30211530 rev/d
Perigee alt
474.4 km
Apogee alt
476.0 km
Semi-major
6,853.3 km
B*
7.0049e-4
RAAN
108.8378°
Arg perigee
86.1723°
Mean anomaly
273.9411°
Rev number
3,514

§ Raw data

STARLINK-353991 66029U 25232AA  26145.18345440  .00020452  00000+0  70049-3 0  99992 66029  53.1570 108.8378 0001165  86.1723 273.9411 15.30211530 35142

JSON: /api/v1/satellites/66029 · /tle

For live sub-satellite position, see the globe view (requires WebGL).

§ Visibility from observer

Set your observer location to see the next 7 days of passes ≥ 10°. The values pass through the URL so the page stays shareable.

No JS? Fill the form by hand. The geolocation button needs JavaScript.